map of BUS home
Great Circle Mapper logo
BUS - Airport
Location
City:  Batumi, Georgia
ICAO / IATA:UGSB / BUS

Details
Type:Airport (Aerodrome, Airfield)
Latitude:4136'37"N (41.610278)
Longitude:4135'59"E (41.599694)
Datum:WGS 1984
Elevation:105 ft (32 m)
Runways:1
Longest:7325 × 150 ft (2233 × 45.5 m), paved

Time
Time Zone:UTC+3 (DST+4)

Weather
METAR:UGSB 011330Z 23025KT 5000 -SHRA FEW012 BKN020CB 14/12 Q1015 R13/210250 NOSIG
TAF:UGSB 011100Z 0112/0212 23022KT 7000 -SHRA SCT012 BKN018CB TX14/0112Z TN11/0202Z
TEMPO 0112/0124 24029G39KT 2000 SHRA BKN008 OVC015CB
TEMPO 0200/0212 23022G32KT 3000 TSRA BKN008 OVC015CB

Related Locations
Nearby:
Farthest:GMR: 11137 mi / 17924 km
Mangareva [Totegegie], Gambier Islands, PF

Find:

   beyond  
but within

Other Information
Maps:
NOTAMs:
Links:
Sources:

  
flag of Georgia   

Sectional Chart

Flight Planning
at skyvector.com

Satellite Image

Google Maps Satellite View

 

Copyright © 2004-2014 Karl L. Swartz. All rights reserved.
The Great Circle Mapper name and logo are trademarks of the Great Circle Mapper.
All other trademarks mentioned herein belong to their respective owners.
Please see credits for attibutions and further copyright information.

  Follow gcmap on Facebook Follow gcmap on Twitter

hCard Microformat

Geo Microformat